Location: Milton Keynes
(52.0316°N, 0.7531°W)
Time: 16:38:29
(UTC+01:00)

Envisat - Pass Details

Date: 24 January 2019
Orbit: 764 x 766 km, 98.1° (Epoch: 17 October)

Event Time Altitude Azimuth Distance (km) Brightness Sun altitude
Rises 18:54:30 0° 174° (S) 3,222 6.2 -21.0°
Reaches altitude 10° 18:56:49 10° 178° (S) 2,300 5.5 -21.3°
Maximum altitude 19:01:50 61° 259° (WSW) 872 3.5 -22.1°
Drops below altitude 10° 19:06:54 10° 340° (NNW) 2,317 5.7 -22.9°
Sets 19:09:15 0° 344° (NNW) 3,247 6.4 -23.2°
